Regional Weather Roundup
Issued by NWS

Home | Current Version | Previous Version | Text Only | Print | Product List | Glossary On
Versions: 1 2 3 4 5 6 7 8 9 10 11 12 13 14 15 16 17 18 19 20 21 22 23 24 25 26 27 28 29 30 31 32 33 34 35 36 37 38 39 40 41 42 43 44 45 46 47 48 49 50
000
ASUS43 KDTX 181210
RWRMI
MICHIGAN HOURLY REGIONAL WEATHER ROUNDUP
NATIONAL WEATHER SERVICE DETROIT/PONTIAC MI
800 AM EDT SAT APR 18 2015

NOTE: "FAIR" INDICATES FEW OR NO CLOUDS BELOW 12,000 FEET WITH NO
SIGNIFICANT WEATHER AND/OR OBSTRUCTION TO VISIBILITY.

MIZ047>049-052>055-059>063-066>070-074>076-081>083-181300-
SOUTHEAST LOWER MICHIGAN

CITY           SKY/WX    TMP DP  RH WIND       PRES   REMARKS
ADRIAN         MOSUNNY   52  44  74 CALM      30.05R
6HR MIN TEMP:  49; 6HR MAX TEMP:  54;

ALMA           SUNNY     51  43  73 NW8       30.07R
6HR MIN TEMP:  45; 6HR MAX TEMP:  52;

ANN ARBOR      PTSUNNY   47  44  90 CALM      30.03R
BAD AXE        SUNNY     47  46  94 NW3       30.06R
DETROIT CITY   MOSUNNY   54  42  64 W5        30.03R
6HR MIN TEMP:  49; 6HR MAX TEMP:  54;

DETROIT        PTSUNNY   55  44  66 SW5       30.04R
6HR MIN TEMP:  48; 6HR MAX TEMP:  55;

FLINT          MOSUNNY   51  43  74 CALM      30.07R
6HR MIN TEMP:  45; 6HR MAX TEMP:  58;

GROSSE ILE     MOSUNNY   52  46  82 CALM      30.03R
HILLSDALE      SUNNY     57  45  62 W3        30.05R
HOWELL         CLOUDY    54  42  64 W3        30.04R
6HR MIN TEMP:  48; 6HR MAX TEMP:  54;


CITY           SKY/WX    TMP DP  RH WIND       PRES   REMARKS
JACKSON        SUNNY     49  43  80 SW6       30.04R
6HR MIN TEMP:  46; 6HR MAX TEMP:  50;

LAMBERTVILLE   MOSUNNY   52  45  76 CALM      30.05R
LANSING        SUNNY     53  43  68 CALM      30.05R
6HR MIN TEMP:  49; 6HR MAX TEMP:  55;

LAPEER         NOT AVBL
MASON          SUNNY     49  42  75 CALM      30.04R
MONROE         MOSUNNY   52  46  82 CALM      30.02S
MT. CLEMENS    PTSUNNY   51  46  84 N3        30.01R
6HR MIN TEMP:  43; 6HR MAX TEMP:  51;

PONTIAC        PTSUNNY   53  44  71 CALM      30.04R
6HR MIN TEMP:  49; 6HR MAX TEMP:  54;

PORT HOPE        N/A     54  40  59 W13       30.03R
6HR MIN TEMP:  41; 6HR MAX TEMP:  54;

PORT HURON     MOSUNNY   46  45  93 NW5       30.04R
TRI CITIES     SUNNY     53  42  66 NW9       30.06R
6HR MIN TEMP:  49; 6HR MAX TEMP:  54;

YPSILANTI      MOSUNNY   54  47  77 CALM      30.04R
6HR MIN TEMP:  50; 6HR MAX TEMP:  54;

$$
MIZ043>046-050>051-056>058-064>065-071>073-077>080-181300-
SOUTHWEST LOWER MICHIGAN

CITY           SKY/WX    TMP DP  RH WIND       PRES   REMARKS
BATTLE CREEK   MOSUNNY   54  46  74 CALM      30.05R
6HR MIN TEMP:  48; 6HR MAX TEMP:  56;

BENTON HARBOR  PTCLDY    56  47  71 W7        30.05R
6HR MIN TEMP:  50; 6HR MAX TEMP:  59;

BIG RAPIDS     SUNNY     46  40  79 NW3       30.08R
6HR MIN TEMP:  41; 6HR MAX TEMP:  48;

COLDWATER      MOSUNNY   51  47  86 CALM      30.05R
6HR MIN TEMP:  46; 6HR MAX TEMP:  51;

HOLLAND        MOSUNNY   52  44  74 CALM      30.05R
6HR MIN TEMP:  50; 6HR MAX TEMP:  57;

GRAND RAPIDS   PTSUNNY   49  42  77 N3        30.05R
6HR MIN TEMP:  46; 6HR MAX TEMP:  53;

KALAMAZOO        N/A     49  44  83 CALM      30.05R
6HR MIN TEMP:  48; 6HR MAX TEMP:  54;

MARSHALL       MOSUNNY   47  43  87 CALM      30.04R
MUSKEGON       PTSUNNY   50  41  71 N7        30.07R
6HR MIN TEMP:  44; 6HR MAX TEMP:  51;

$$
MIZ016>042-181300-
NORTHERN LOWER MICHIGAN

CITY           SKY/WX    TMP DP  RH WIND       PRES   REMARKS
ALPENA         SUNNY     47  31  53 NW13G22   30.08R
6HR MIN TEMP:  36; 6HR MAX TEMP:  47;

BEAVER ISLAND  SUNNY     41  32  72 N14G20    30.14R
6HR MIN TEMP:  34; 6HR MAX TEMP:  44;

BELLAIRE       SUNNY     44  32  64 N3        30.13R
6HR MIN TEMP:  34; 6HR MAX TEMP:  44;

CADILLAC       SUNNY     47  34  62 N7        30.09R
CHARLEVOIX     SUNNY     40  33  77 N5        30.17R
6HR MIN TEMP:  38; 6HR MAX TEMP:  44;

FRANKFORT      SUNNY     45  32  60 NE8G17    30.12R
GAYLORD        SUNNY     44  31  60 VRB3      30.09R
6HR MIN TEMP:  39; 6HR MAX TEMP:  49;

GRAYLING       SUNNY     43  35  72 NW5       30.11R
6HR MIN TEMP:  31; 6HR MAX TEMP:  43;

HARBOR SPRINGS SUNNY     41  31  66 N7        30.12R
HOUGHTON LAKE  SUNNY     48  35  60 N7        30.09
6HR MIN TEMP:  41; 6HR MAX TEMP:  65;

MANISTEE       SUNNY     43  36  75 NE7       30.12R
OSCODA         SUNNY     51  38  61 N13       30.05R
PELLSTON       SUNNY     43  31  62 N12       30.12R
6HR MIN TEMP:  32; 6HR MAX TEMP:  47;

TRAVERSE CITY  MOSUNNY   44  33  65 N7        30.13R
6HR MIN TEMP:  40; 6HR MAX TEMP:  51;

$$
MIZ007>008-015-181300-
EASTERN UPPER MICHIGAN

CITY           SKY/WX    TMP DP  RH WIND       PRES   REMARKS
KINROSS        SUNNY     37  30  75 NW12      30.12R
6HR MIN TEMP:  36; 6HR MAX TEMP:  45;

MACKINAC ISLAN SUNNY     42  31  65 N10G18    30.12R
6HR MIN TEMP:  40; 6HR MAX TEMP:  46;

NEWBERRY       SUNNY     38  33  80 N5        30.16R
S. S. MARIE    SUNNY     42  30  62 N7        30.12R
6HR MIN TEMP:  37; 6HR MAX TEMP:  45;

$$
MIZ004>006-011>014-085-181300-
CENTRAL UPPER MICHIGAN

CITY           SKY/WX    TMP DP  RH WIND       PRES   REMARKS
MANISTIQUE     SUNNY     38  35  87 N16       30.15R
ESCANABA       CLEAR     39  34  81 N9G16     30.19R
6HR MIN TEMP:  34; 6HR MAX TEMP:  48;

MENOMINEE      CLEAR     43  34  70 N13G18    30.15R
6HR MIN TEMP:  37; 6HR MAX TEMP:  48;

SAWYER-GWINN   MOCLDY    37  34  87 N16       30.18R
$$
MIZ001>003-009>011-084-181300-
WESTERN UPPER MICHIGAN

CITY           SKY/WX    TMP DP  RH WIND       PRES   REMARKS
IRON MOUNTAIN  CLEAR     39  32  76 N12       30.19R
6HR MIN TEMP:  37; 6HR MAX TEMP:  50;

HOUGHTON       PTCLDY    39  32  76 N5        30.22R
6HR MIN TEMP:  36; 6HR MAX TEMP:  42;

COPPER HARBOR    N/A     37  32  82 NE9       30.24R
6HR MIN TEMP:  35; 6HR MAX TEMP:  39;

IRONWOOD       MOCLDY    37  32  81 E9G20     30.19R
6HR MIN TEMP:  37; 6HR MAX TEMP:  50;

$$

ABBREVIATIONS USED IN REMARKS
   TC - TEMPERATURE IN CELSIUS
  WCI - WIND CHILL INDEX
   HX - HEAT INDEX
  VSB - VISIBILITY



USA.gov is the U.S. government's official web portal to all federal, state and local government web resources and services.